Wind_Speed
35 36 35 35 35 35 35 35 35 35 36 36 36 36 36 36 36 36 35 34 33 33 34 33 33 32 32 32 31 31 31 30 29 28 27 26 26 25 25 25 24 23 22
37 37 37 37 37 36 36 36 36 36 36 37 38 38 38 37 37 37 37 36 35 35 35 35 34 34 33 33 33 32 32 31 31 30 29 28 27 27 27 26 26 25 24
39 39 39 39 38 38 37 38 38 37 37 38 38 39 39 39 39 39 39 38 37 37 37 37 36 35 35 35 35 34 34 33 33 32 31 30 30 29 28 28 28 27 26
40 40 40 40 40 40 39 40 39 40 39 39 39 39 39 40 41 40 40 39 39 39 39 39 38 38 38 37 37 37 36 35 34 34 33 33 32 31 30 30 29 29 28
42 42 41 41 41 41 41 41 41 41 41 41 41 40 40 40 41 42 42 42 41 40 40 40 40 40 39 39 39 39 38 37 36 36 35 35 34 33 32 31 31 31 30
44 44 43 43 43 43 43 43 42 42 42 42 41 41 41 42 42 42 43 43 43 42 42 43 43 42 42 41 41 41 41 40 39 39 38 37 36 36 35 34 33 32 32
45 45 45 44 44 44 44 44 45 44 43 43 43 43 43 42 43 43 43 44 44 44 44 44 45 45 44 44 43 43 43 43 42 41 41 40 38 37 37 36 35 35 34
46 47 47 46 46 46 46 45 45 45 45 45 45 45 45 45 44 44 44 45 45 46 46 46 46 47 46 46 46 45 45 44 43 43 42 42 41 40 39 38 37 36 36
47 47 48 48 47 47 47 46 46 47 46 47 47 47 47 48 47 46 47 46 46 47 47 47 47 47 47 48 48 47 46 46 45 45 44 43 44 43 42 40 39 38 37
48 49 48 48 48 48 48 48 49 49 48 47 48 49 49 48 48 48 47 46 46 47 48 47 47 48 48 49 49 49 49 48 47 47 46 46 45 45 44 43 43 41 40
49 49 49 48 48 48 48 49 49 50 50 49 49 49 49 50 50 49 49 48 47 48 48 49 49 50 50 50 50 51 51 50 50 49 49 48 47 47 47 46 46 44 43
49 50 51 50 50 49 49 49 50 50 50 51 51 51 50 51 51 51 51 50 50 50 50 51 51 51 51 51 52 52 52 52 52 51 51 50 50 49 49 49 48 46 46
50 50 51 51 51 51 50 50 50 50 50 51 51 52 52 53 53 53 53 53 52 52 52 53 53 53 52 52 53 54 54 54 54 54 53 52 52 51 51 51 50 49 48
49 50 50 51 51 51 50 50 50 50 51 51 51 52 53 53 54 55 54 54 55 54 53 54 55 55 55 55 55 55 55 55 56 56 56 55 54 54 54 53 53 52 51
49 49 50 51 51 51 51 51 50 50 51 52 53 54 54 55 55 55 55 55 56 57 57 56 56 57 57 57 57 57 57 57 57 57 58 58 57 56 56 55 55 55 54
49 49 49 50 50 50 49 50 50 52 53 53 54 54 54 55 56 56 56 57 58 58 58 58 58 58 58 58 59 59 59 59 59 60 60 60 60 59 59 58 58 57 56
49 50 50 51 51 51 51 50 50 51 53 53 54 54 54 55 56 57 57 57 58 59 58 58 59 59 60 60 60 60 60 60 60 61 62 62 62 61 61 60 60 59 58
48 49 50 51 52 52 52 52 52 52 52 53 53 54 53 54 55 56 57 56 57 57 58 58 59 59 59 60 61 61 62 62 61 61 63 64 64 64 63 63 62 61 60
47 48 49 50 51 52 52 52 52 53 53 53 53 54 54 54 56 56 57 57 57 58 58 58 58 60 60 61 61 61 62 62 62 62 62 64 65 65 65 64 64 63 62
46 47 48 49 50 51 52 52 53 53 54 54 54 54 55 55 56 58 58 58 58 58 58 59 59 60 61 62 62 62 63 63 63 63 63 64 65 66 66 66 65 64 64
45 46 47 48 49 50 51 51 52 53 54 55 55 55 56 57 58 59 60 60 59 59 59 60 60 61 62 62 62 63 63 63 64 64 63 64 65 66 67 66 66 66 65
45 46 46 47 48 49 50 51 52 53 54 55 56 57 57 58 59 59 60 61 61 60 60 61 61 62 62 62 62 63 64 63 63 63 63 63 64 65 67 66 66 66 65
44 45 46 46 47 48 49 50 52 53 54 55 56 57 58 58 59 59 60 60 61 60 60 61 61 61 62 62 62 63 63 63 62 62 63 63 64 64 65 66 65 65 65
44 44 45 46 46 47 48 49 50 51 53 54 55 55 56 57 57 57 58 58 58 58 58 59 59 59 60 61 61 62 62 63 62 61 62 62 62 62 63 64 65 65 65
43 43 44 45 46 46 47 48 48 49 50 52 52 52 53 53 54 55 55 56 56 57 57 57 57 57 58 59 61 61 62 62 61 61 61 61 61 62 62 63 65 65 65
43 43 44 44 45 46 46 47 47 48 49 49 49 50 51 52 52 52 53 53 53 54 55 55 56 56 57 58 59 60 61 61 61 61 61 61 62 62 63 64 64 65 65
Wind_Direction
257 257 256 256 257 257 257 257 256 255 255 254 253 253 253 254 254 254 253 251 250 249 248 247 247 247 249 249 247 246 247 247 247 247 247 248 248 248 248 249 251 253 254
257 257 256 255 256 256 256 257 256 256 256 255 254 254 254 253 254 254 253 252 250 249 249 248 248 247 248 247 246 246 246 247 247 247 248 248 249 249 250 250 251 253 254
258 257 256 255 255 255 256 256 255 255 255 255 255 255 253 253 254 254 254 253 251 249 249 249 248 247 246 246 246 245 246 246 247 247 247 248 249 250 251 251 251 253 254
259 257 257 256 254 255 257 257 255 254 254 254 255 255 255 254 253 253 253 253 251 251 250 248 248 248 247 247 247 246 246 247 247 248 248 248 248 249 250 251 252 253 254
259 258 257 256 256 256 256 256 256 255 255 255 255 255 255 254 254 253 253 252 251 251 249 248 248 248 248 247 246 246 246 247 248 248 249 249 248 249 250 251 252 253 253
259 258 257 257 257 257 257 256 256 256 256 256 256 256 256 255 253 253 253 252 252 250 249 248 248 248 248 247 247 246 246 247 248 249 249 249 249 250 250 250 251 252 253
258 258 258 259 258 258 258 257 256 256 257 257 256 256 256 255 253 253 253 253 252 250 249 249 248 248 247 247 246 245 246 246 247 248 249 249 249 249 249 250 251 252 252
258 258 257 258 258 259 258 258 257 257 257 257 257 257 256 256 255 253 254 254 252 251 250 249 248 248 246 246 245 245 246 246 246 247 248 248 248 248 248 249 250 251 251
258 258 258 258 258 258 259 258 257 258 257 257 257 257 258 258 256 255 255 255 253 252 251 249 249 247 247 246 245 246 246 246 246 247 247 248 249 249 249 248 248 250 251
259 258 258 258 257 257 257 257 258 258 258 257 257 257 257 257 256 256 256 255 253 252 252 251 249 248 247 247 247 247 247 247 247 247 247 247 248 249 248 248 248 250 252
260 259 258 258 257 257 258 257 257 258 257 257 257 257 256 256 256 256 255 253 252 251 251 251 250 249 248 247 248 247 247 247 247 247 247 247 247 248 248 248 249 250 252
263 261 261 259 259 258 258 258 257 257 257 257 257 256 256 256 256 256 256 254 252 252 251 251 250 250 249 249 248 248 247 247 247 247 247 247 247 248 248 248 249 250 251
263 262 262 261 260 259 258 257 257 258 257 256 256 256 256 257 257 257 257 256 254 253 252 251 251 251 250 250 249 248 248 248 248 248 248 248 248 248 249 249 250 251 251
262 262 261 261 261 261 259 258 258 258 258 257 257 257 257 257 257 257 257 257 256 255 254 253 252 253 253 252 251 250 250 249 249 249 249 249 249 249 249 249 249 250 251
263 262 262 262 261 261 261 260 258 258 259 258 258 258 258 257 257 257 257 257 257 256 255 255 255 254 254 254 253 253 252 251 250 249 249 249 249 249 250 250 249 250 251
264 263 263 263 262 261 260 260 259 259 259 260 259 259 258 258 257 257 258 258 258 258 257 256 256 256 255 255 254 254 253 252 251 250 249 249 249 250 250 251 250 250 250
265 264 263 263 262 262 261 260 261 261 261 261 260 259 259 258 257 257 258 258 258 258 258 258 257 255 254 254 254 254 254 253 252 251 250 249 249 249 250 250 250 250 251
267 266 265 264 263 263 263 262 262 262 262 262 261 260 259 258 258 258 259 259 259 259 259 258 258 256 255 254 253 253 253 253 253 252 251 250 250 249 249 250 250 250 251
268 267 266 265 264 264 264 263 263 263 263 263 262 261 260 260 260 260 260 261 260 260 260 259 259 257 256 254 254 254 253 253 253 253 252 251 250 249 248 249 250 250 251
268 268 268 267 265 264 263 263 264 264 264 263 262 262 262 262 261 262 262 262 262 262 261 260 259 258 257 255 254 254 254 253 252 252 252 251 250 249 248 249 249 250 251
270 269 269 268 267 265 264 264 264 264 264 263 263 263 262 262 262 262 262 262 262 262 262 261 260 259 258 256 255 255 254 254 253 252 252 251 250 249 248 248 249 250 250
271 271 270 269 268 267 266 266 266 266 265 265 265 265 264 263 263 263 262 261 262 263 262 262 261 260 259 257 256 255 254 253 253 252 252 251 251 250 249 248 249 249 249
272 271 270 269 269 268 268 268 268 267 266 266 267 266 265 264 264 263 262 262 262 263 263 262 261 261 259 258 256 255 254 253 252 252 252 252 251 251 250 249 248 248 249
273 272 271 270 270 270 270 270 269 269 268 267 267 266 265 264 264 264 263 263 263 263 262 262 261 261 259 258 256 255 253 253 253 253 252 252 251 251 250 249 249 248 248
274 273 272 272 271 271 272 271 270 270 269 268 267 266 265 264 264 264 264 264 263 262 261 260 260 259 258 258 256 255 254 253 252 253 253 252 251 251 250 250 249 249 248
275 275 274 274 273 273 272 272 272 271 271 269 267 266 265 265 265 265 265 264 264 263 262 261 261 260 259 257 256 255 254 253 253 253 253 253 252 252 251 250 250 249 249
Height
5766 5767 5768 5768 5769 5770 5771 5772 5773 5774 5775 5777 5778 5779 5781 5782 5783 5785 5786 5787 5789 5791 5792 5794 5796 5798 5800 5801 5803 5805 5807 5809 5810 5812 5814 5815 5816 5817 5819 5820 5821 5823 5824
5757 5758 5759 5760 5761 5762 5763 5763 5765 5766 5767 5768 5769 5771 5772 5773 5775 5776 5777 5779 5781 5782 5784 5786 5788 5790 5792 5794 5796 5798 5800 5802 5804 5805 5807 5809 5811 5812 5813 5814 5816 5817 5819
5748 5748 5750 5751 5752 5752 5754 5755 5756 5757 5758 5759 5760 5761 5763 5764 5765 5767 5768 5770 5772 5773 5775 5777 5779 5781 5784 5786 5788 5790 5792 5794 5796 5798 5800 5802 5804 5806 5807 5808 5810 5811 5813
5738 5739 5740 5741 5742 5743 5744 5745 5746 5747 5748 5749 5751 5752 5753 5754 5755 5757 5758 5760 5762 5764 5766 5768 5770 5772 5774 5777 5779 5781 5784 5786 5788 5790 5793 5795 5797 5799 5800 5802 5804 5805 5807
5727 5728 5729 5731 5732 5733 5734 5735 5736 5737 5738 5739 5740 5742 5743 5744 5745 5747 5748 5750 5752 5754 5756 5758 5761 5763 5765 5767 5770 5772 5775 5777 5779 5782 5784 5787 5789 5791 5793 5795 5797 5798 5800
5716 5717 5718 5720 5721 5723 5724 5725 5726 5726 5728 5729 5730 5731 5732 5733 5734 5736 5738 5740 5742 5744 5746 5748 5750 5753 5755 5757 5760 5762 5765 5768 5770 5773 5775 5778 5781 5783 5785 5787 5789 5791 5793
5704 5705 5707 5708 5710 5711 5713 5714 5715 5716 5717 5718 5719 5721 5722 5722 5724 5725 5727 5729 5731 5733 5735 5737 5739 5742 5744 5747 5749 5752 5754 5758 5761 5763 5766 5769 5771 5774 5776 5779 5781 5783 5785
5692 5693 5695 5697 5698 5700 5701 5702 5703 5705 5706 5707 5708 5709 5710 5712 5713 5714 5716 5717 5719 5721 5723 5725 5728 5730 5733 5736 5738 5741 5744 5747 5750 5753 5756 5759 5762 5765 5767 5770 5772 5774 5776
5679 5681 5682 5684 5686 5687 5689 5690 5692 5693 5694 5695 5696 5697 5698 5700 5702 5703 5704 5706 5707 5709 5711 5713 5716 5718 5721 5724 5727 5729 5732 5736 5739 5742 5746 5749 5751 5755 5757 5760 5763 5765 5767
5666 5667 5669 5671 5673 5674 5676 5677 5679 5680 5681 5682 5684 5685 5686 5688 5689 5691 5693 5694 5695 5697 5699 5701 5704 5706 5709 5712 5714 5717 5721 5724 5727 5731 5734 5738 5741 5744 5747 5750 5753 5755 5758
5652 5654 5656 5657 5659 5661 5662 5664 5666 5667 5668 5670 5671 5672 5673 5675 5676 5678 5680 5682 5683 5685 5687 5689 5691 5694 5697 5699 5702 5705 5709 5712 5715 5719 5722 5726 5729 5733 5736 5739 5742 5745 5747
5639 5640 5641 5643 5645 5647 5649 5650 5652 5653 5654 5656 5658 5659 5660 5662 5663 5664 5666 5668 5670 5672 5674 5676 5678 5681 5684 5686 5689 5692 5696 5699 5702 5706 5710 5713 5717 5720 5724 5727 5730 5734 5737
5625 5626 5627 5629 5631 5633 5635 5636 5638 5639 5641 5642 5644 5645 5647 5648 5650 5651 5652 5654 5656 5658 5660 5663 5665 5667 5670 5672 5675 5678 5682 5685 5689 5693 5697 5700 5704 5708 5711 5715 5718 5722 5725
5612 5612 5614 5615 5617 5619 5621 5622 5624 5626 5627 5628 5630 5631 5632 5634 5635 5637 5638 5640 5642 5644 5646 5648 5651 5653 5656 5658 5661 5664 5667 5671 5675 5679 5683 5687 5690 5694 5698 5701 5705 5709 5713
5598 5599 5600 5602 5603 5605 5607 5608 5610 5612 5613 5614 5615 5617 5618 5619 5621 5622 5623 5625 5627 5629 5632 5634 5636 5638 5640 5643 5646 5649 5653 5656 5660 5664 5668 5672 5676 5680 5684 5687 5692 5696 5699
5585 5586 5587 5588 5589 5591 5593 5594 5596 5597 5599 5600 5601 5602 5603 5604 5606 5607 5609 5610 5611 5613 5616 5619 5621 5623 5625 5627 5630 5633 5637 5640 5644 5648 5652 5656 5661 5665 5669 5673 5677 5681 5685
5572 5573 5574 5574 5576 5577 5578 5580 5581 5583 5584 5585 5586 5587 5588 5589 5590 5592 5593 5595 5596 5598 5600 5603 5605 5607 5609 5611 5614 5617 5620 5624 5628 5632 5636 5640 5644 5649 5653 5657 5662 5666 5671
5559 5560 5560 5561 5562 5563 5564 5565 5567 5568 5569 5570 5571 5572 5573 5574 5575 5576 5577 5579 5580 5582 5584 5587 5589 5590 5592 5594 5597 5601 5604 5608 5611 5615 5619 5623 5627 5632 5637 5641 5646 5651 5655
5547 5547 5547 5548 5548 5549 5550 5551 5552 5553 5554 5555 5556 5557 5558 5558 5560 5561 5562 5563 5564 5566 5568 5570 5572 5574 5576 5578 5580 5583 5587 5590 5595 5598 5602 5606 5610 5615 5620 5625 5630 5635 5639
5534 5534 5534 5534 5535 5535 5536 5537 5538 5539 5539 5540 5541 5542 5542 5543 5544 5545 5546 5547 5548 5549 5551 5552 5555 5557 5559 5560 5563 5566 5570 5573 5577 5581 5585 5588 5593 5597 5602 5608 5614 5619 5623
5522 5521 5521 5521 5521 5522 5522 5523 5523 5523 5524 5525 5525 5526 5527 5527 5528 5529 5529 5531 5531 5533 5534 5535 5537 5539 5541 5543 5546 5548 5552 5555 5559 5563 5567 5571 5575 5580 5584 5589 5594 5600 5605
5510 5509 5508 5508 5508 5508 5508 5508 5508 5508 5508 5509 5510 5510 5511 5511 5511 5512 5512 5513 5514 5515 5517 5518 5519 5521 5524 5526 5528 5530 5534 5538 5543 5548 5549 5553 5557 5561 5566 5571 5576 5581 5586
5497 5496 5495 5495 5494 5494 5493 5493 5492 5492 5493 5493 5493 5494 5494 5494 5494 5494 5495 5496 5497 5497 5499 5500 5502 5504 5506 5508 5510 5513 5516 5520 5525 5529 5532 5536 5539 5544 5548 5553 5558 5563 5568
5485 5484 5483 5482 5481 5480 5479 5478 5477 5477 5477 5477 5477 5477 5477 5477 5477 5477 5478 5479 5479 5481 5482 5483 5486 5487 5488 5489 5492 5495 5498 5502 5507 5511 5514 5519 5523 5527 5531 5535 5540 5545 5550
5473 5471 5470 5469 5468 5467 5465 5464 5463 5462 5462 5462 5461 5461 5460 5461 5461 5461 5461 5462 5463 5464 5464 5465 5467 5469 5470 5472 5474 5477 5480 5485 5490 5494 5497 5501 5506 5509 5514 5518 5523 5527 5532
5460 5459 5457 5456 5454 5453 5452 5450 5448 5448 5447 5447 5446 5446 5446 5446 5445 5444 5445 5445 5446 5447 5447 5449 5450 5452 5453 5455 5457 5460 5463 5467 5472 5477 5481 5484 5488 5491 5496 5501 5505 5510 5514